Hourly Weather Glasgow

Today, 26 January, Tuesday

Time Temperature Precipitation Wind Pressure Humidity
00:00 -1°C° 0 mm 3 mps 756 mmHg 86%
01:00 -1°C° 0 mm 3 mps 756 mmHg 86%
02:00 -1°C° 0 mm 3 mps 756 mmHg 87%
03:00 -1°C° 0 mm 3 mps 756 mmHg 87%
04:00 -1°C° 0 mm 3 mps 756 mmHg 89%
05:00 -1°C° 0 mm 3 mps 756 mmHg 90%
06:00 -1°C° 0 mm 2 mps 756 mmHg 91%
07:00 -1°C° 0 mm 2 mps 756 mmHg 92%
08:00 -1°C° 0 mm 2 mps 756 mmHg 92%
09:00 +1°C° 0 mm 2 mps 756 mmHg 93%
10:00 +2°C° 0 mm 1 mps 756 mmHg 90%
11:00 +3°C° 0 mm 1 mps 756 mmHg 87%
12:00 +4°C° 0 mm 1 mps 756 mmHg 84%
13:00 +3°C° 0 mm 2 mps 756 mmHg 86%
14:00 +3°C° 0 mm 2 mps 755 mmHg 87%
15:00 +2°C° 0 mm 3 mps 755 mmHg 89%
16:00 +2°C° 0.4 mm 3 mps 754 mmHg 92%
17:00 +1°C° 0.4 mm 3 mps 754 mmHg 95%
18:00 0°C° 0.4 mm 4 mps 753 mmHg 97%
19:00 0°C° 1.1 mm 4 mps 753 mmHg 98%
20:00 0°C° 1.1 mm 4 mps 753 mmHg 98%
21:00 0°C° 1.1 mm 4 mps 752 mmHg 98%
22:00 0°C° 0.5 mm 4 mps 752 mmHg 98%
23:00 +1°C° 0.5 mm 4 mps 752 mmHg 98%

Tomorrow, 27 January, Wednesday

Time Temperature Precipitation Wind Pressure Humidity
00:00 +2°C° 0.5 mm 3 mps 752 mmHg 98%
01:00 +2°C° 0.1 mm 3 mps 752 mmHg 97%
02:00 +2°C° 0.1 mm 3 mps 752 mmHg 97%
03:00 +2°C° 0.1 mm 3 mps 752 mmHg 96%
04:00 0°C° 0.1 mm 4 mps 753 mmHg 96%
05:00 0°C° 0.1 mm 4 mps 753 mmHg 96%
06:00 0°C° 0.1 mm 5 mps 754 mmHg 96%
07:00 0°C° 0.1 mm 5 mps 755 mmHg 94%
08:00 -1°C° 0.1 mm 5 mps 755 mmHg 92%
09:00 -1°C° 0.1 mm 5 mps 756 mmHg 90%
10:00 -1°C° 0 mm 5 mps 757 mmHg 86%
11:00 0°C° 0 mm 5 mps 757 mmHg 82%
12:00 +1°C° 0 mm 5 mps 758 mmHg 79%
13:00 0°C° 0 mm 5 mps 758 mmHg 80%
14:00 0°C° 0 mm 4 mps 758 mmHg 81%
15:00 0°C° 0 mm 4 mps 758 mmHg 82%
16:00 -1°C° 0 mm 4 mps 759 mmHg 83%
17:00 -2°C° 0 mm 4 mps 759 mmHg 84%
18:00 -2°C° 0 mm 3 mps 759 mmHg 85%
19:00 -2°C° 0 mm 3 mps 759 mmHg 84%
20:00 -2°C° 0 mm 3 mps 759 mmHg 84%
21:00 -2°C° 0 mm 3 mps 759 mmHg 83%
22:00 -2°C° 0 mm 2 mps 758 mmHg 83%
23:00 -2°C° 0 mm 2 mps 758 mmHg 83%

Day after tomorrow, 28 January, Thursday

Time Temperature Precipitation Wind Pressure Humidity
00:00 0°C° 0 mm 1 mps 757 mmHg 83%
01:00 0°C° 0 mm 1 mps 756 mmHg 83%
02:00 0°C° 0 mm 1 mps 756 mmHg 83%
03:00 0°C° 0 mm 1 mps 755 mmHg 82%
04:00 -1°C° 0 mm 2 mps 754 mmHg 82%
05:00 -1°C° 0 mm 3 mps 754 mmHg 81%
06:00 -1°C° 0 mm 4 mps 753 mmHg 80%
07:00 -1°C° 0 mm 4 mps 753 mmHg 80%
08:00 -1°C° 0 mm 4 mps 752 mmHg 80%
09:00 0°C° 0 mm 4 mps 752 mmHg 80%
10:00 0°C° 0 mm 4 mps 752 mmHg 78%
11:00 +1°C° 0 mm 5 mps 752 mmHg 77%
12:00 +1°C° 0 mm 5 mps 752 mmHg 76%
13:00 +1°C° 0 mm 4 mps 751 mmHg 78%
14:00 +1°C° 0 mm 4 mps 751 mmHg 80%
15:00 +1°C° 0 mm 4 mps 750 mmHg 82%
16:00 0°C° 0.1 mm 4 mps 750 mmHg 84%
17:00 0°C° 0.1 mm 4 mps 750 mmHg 87%
18:00 0°C° 0.1 mm 4 mps 750 mmHg 90%
19:00 0°C° 0.4 mm 5 mps 750 mmHg 91%
20:00 0°C° 0.4 mm 5 mps 750 mmHg 91%
21:00 0°C° 0.4 mm 5 mps 750 mmHg 92%
22:00 0°C° 0.3 mm 5 mps 750 mmHg 92%
23:00 0°C° 0.3 mm 5 mps 750 mmHg 91%

29 January, Friday

Time Temperature Precipitation Wind Pressure Humidity
00:00 0°C° 0.3 mm 5 mps 750 mmHg 91%
01:00 0°C° 0.2 mm 4 mps 750 mmHg 90%
02:00 0°C° 0.2 mm 4 mps 749 mmHg 90%
03:00 +1°C° 0.2 mm 3 mps 749 mmHg 89%
04:00 +1°C° 0.1 mm 3 mps 750 mmHg 88%
05:00 +1°C° 0.1 mm 3 mps 750 mmHg 86%
06:00 +1°C° 0.1 mm 3 mps 750 mmHg 85%
07:00 +1°C° 0.1 mm 3 mps 750 mmHg 86%
08:00 +1°C° 0.1 mm 3 mps 751 mmHg 86%
09:00 +1°C° 0.1 mm 3 mps 751 mmHg 87%
10:00 +1°C° 0 mm 3 mps 751 mmHg 86%
11:00 +1°C° 0 mm 3 mps 752 mmHg 86%
12:00 +3°C° 0 mm 2 mps 752 mmHg 86%
13:00 +3°C° 0 mm 2 mps 752 mmHg 87%
14:00 +3°C° 0 mm 2 mps 752 mmHg 88%
15:00 +2°C° 0 mm 2 mps 752 mmHg 89%
16:00 +2°C° 0.1 mm 2 mps 753 mmHg 90%
17:00 +2°C° 0.1 mm 2 mps 753 mmHg 91%
18:00 +1°C° 0.1 mm 2 mps 753 mmHg 92%
19:00 +2°C° 0.1 mm 2 mps 753 mmHg 93%
20:00 +2°C° 0.1 mm 2 mps 753 mmHg 94%
21:00 +2°C° 0.1 mm 2 mps 754 mmHg 94%
22:00 +2°C° 0 mm 2 mps 754 mmHg 94%
23:00 +2°C° 0 mm 2 mps 754 mmHg 94%

30 January, Saturday

Time Temperature Precipitation Wind Pressure Humidity
00:00 +2°C° 0 mm 2 mps 754 mmHg 94%
01:00 +2°C° 0 mm 2 mps 754 mmHg 94%
02:00 0°C° 0 mm 3 mps 754 mmHg 94%
03:00 0°C° 0 mm 3 mps 754 mmHg 94%
04:00 0°C° 0 mm 3 mps 754 mmHg 95%
05:00 +2°C° 0 mm 2 mps 754 mmHg 96%
06:00 +2°C° 0 mm 2 mps 754 mmHg 96%
07:00 +1°C° 0.2 mm 3 mps 754 mmHg 97%
08:00 +1°C° 0.2 mm 3 mps 754 mmHg 97%
09:00 +1°C° 0.2 mm 3 mps 754 mmHg 98%
10:00 +2°C° 0.1 mm 3 mps 754 mmHg 97%
11:00 +1°C° 0.1 mm 4 mps 754 mmHg 96%
12:00 +3°C° 0.1 mm 4 mps 754 mmHg 95%
13:00 +3°C° 0.1 mm 4 mps 754 mmHg 95%
14:00 +3°C° 0.1 mm 4 mps 754 mmHg 95%
15:00 +3°C° 0.1 mm 4 mps 754 mmHg 95%
16:00 +1°C° 0 mm 4 mps 753 mmHg 96%
17:00 +1°C° 0 mm 4 mps 753 mmHg 96%
18:00 0°C° 0 mm 4 mps 753 mmHg 97%
19:00 +1°C° 0.1 mm 5 mps 753 mmHg 96%
20:00 +1°C° 0.1 mm 5 mps 752 mmHg 96%
21:00 +1°C° 0.1 mm 6 mps 752 mmHg 95%
22:00 +1°C° 0.1 mm 6 mps 751 mmHg 95%
23:00 +1°C° 0.1 mm 6 mps 751 mmHg 95%

31 January, Sunday

Time Temperature Precipitation Wind Pressure Humidity
00:00 0°C° 0.1 mm 7 mps 750 mmHg 95%
01:00 +2°C° 0.1 mm 7 mps 749 mmHg 94%
02:00 +1°C° 0.1 mm 8 mps 748 mmHg 94%
03:00 +1°C° 0.1 mm 9 mps 746 mmHg 94%
04:00 +1°C° 0.3 mm 9 mps 746 mmHg 95%
05:00 0°C° 0.3 mm 10 mps 745 mmHg 95%
06:00 -1°C° 0.3 mm 11 mps 744 mmHg 96%
07:00 -1°C° 0.7 mm 12 mps 743 mmHg 96%
08:00 -1°C° 0.7 mm 12 mps 742 mmHg 97%
09:00 -1°C° 0.7 mm 13 mps 741 mmHg 97%
10:00 -1°C° 0.6 mm 13 mps 741 mmHg 97%
11:00 -1°C° 0.6 mm 13 mps 740 mmHg 97%
12:00 -1°C° 0.6 mm 13 mps 740 mmHg 97%
13:00 -1°C° 0.6 mm 13 mps 740 mmHg 96%
14:00 0°C° 0.6 mm 13 mps 739 mmHg 96%
15:00 0°C° 0.6 mm 13 mps 739 mmHg 96%
16:00 0°C° 0.6 mm 13 mps 739 mmHg 95%
17:00 0°C° 0.6 mm 13 mps 739 mmHg 95%
18:00 0°C° 0.6 mm 12 mps 739 mmHg 95%
19:00 0°C° 0.3 mm 12 mps 740 mmHg 94%
20:00 0°C° 0.3 mm 12 mps 740 mmHg 93%
21:00 0°C° 0.3 mm 12 mps 740 mmHg 93%
22:00 0°C° 0.3 mm 12 mps 740 mmHg 93%
23:00 0°C° 0.3 mm 12 mps 740 mmHg 93%
Show more